Theta_e
353 353 354 352 352 353 355 356 356 356 355 353 352 351 350 352 351 350 350 348 348 348 348 346 346 347 349 347 346 345 348 347 347 348 347 347 348 349 349 350 349 350 351 350 351 351 350 348 348 348 348 347 346 346 346 346 345 344 344 342 340 340 339 338 335 336 339 348 349 349 352 355 353 357 356 355 356 355 353 348 347 345 344 343 344
352 353 352 350 349 349 351 354 355 354 356 356 352 351 350 350 350 350 349 349 349 349 348 347 347 346 345 344 345 346 345 344 346 347 347 347 347 350 350 348 349 349 350 349 349 351 350 348 348 349 350 349 348 348 346 345 344 343 343 341 338 338 342 341 339 336 335 339 345 350 350 355 352 356 355 352 353 352 349 347 347 346 344 343 342
354 353 351 349 349 350 352 352 353 355 356 356 353 351 350 350 350 349 349 349 350 351 351 349 349 347 347 346 346 347 346 346 346 346 347 348 347 348 350 348 348 348 348 348 349 349 349 349 348 349 350 348 348 348 347 346 346 344 344 343 341 342 346 344 342 337 338 338 342 345 346 348 352 351 355 354 354 352 348 347 346 347 347 345 343
353 352 350 349 349 350 350 352 353 353 354 355 353 352 353 353 356 353 353 356 351 351 349 348 349 348 349 348 348 347 347 348 348 346 346 347 348 348 348 348 347 348 348 349 349 349 348 348 348 348 349 348 347 347 347 347 345 345 344 343 341 341 344 342 340 338 338 338 339 344 345 343 345 346 353 356 353 349 348 348 347 346 347 347 346
352 351 350 349 349 350 351 352 351 351 351 355 354 351 353 352 353 352 353 355 355 351 352 352 349 348 347 347 347 348 349 350 349 348 347 348 347 347 348 347 346 347 348 349 355 349 349 348 348 348 347 347 346 346 345 344 345 344 342 341 341 342 344 340 339 339 337 336 337 339 340 342 347 348 350 349 346 346 345 345 346 346 346 346 347
352 351 350 349 349 350 350 351 351 350 350 352 354 351 351 351 352 352 352 353 354 354 352 351 350 347 347 347 347 347 349 351 351 350 350 349 350 351 350 350 349 348 349 349 352 347 347 346 346 346 345 344 344 345 344 344 344 344 343 342 341 342 341 341 340 338 336 336 336 337 338 339 340 344 345 346 345 344 343 344 344 344 344 344 345
352 351 350 350 349 349 348 347 349 349 351 352 352 350 350 350 351 351 352 351 353 352 353 352 353 349 348 348 348 348 348 350 349 349 349 349 351 351 349 348 349 350 350 349 348 347 346 345 345 345 344 344 344 344 344 344 345 344 345 343 343 342 342 340 341 338 337 337 339 339 337 340 341 339 342 344 345 345 344 342 341 343 343 343 343
352 352 351 349 349 348 348 348 348 349 351 352 350 350 350 350 349 348 349 349 350 355 354 352 352 351 350 349 349 350 349 349 350 350 350 350 353 351 349 348 349 348 349 348 348 347 346 346 346 345 344 344 344 344 344 343 343 343 344 342 342 342 341 341 340 339 340 339 337 337 338 339 337 339 341 339 339 341 342 341 340 341 341 342 344
351 349 348 347 347 348 348 349 348 349 352 351 349 349 349 349 348 347 349 348 350 355 357 355 353 351 351 350 350 352 351 350 351 351 352 353 354 352 350 350 349 348 347 347 347 347 347 347 346 346 349 354 355 354 351 351 344 342 343 344 343 342 341 341 342 341 338 337 336 337 337 338 338 337 337 336 337 340 341 340 340 342 342 341 342
346 345 345 345 347 347 347 348 348 348 349 349 348 348 348 349 349 347 348 348 348 355 355 354 354 352 351 351 351 353 353 354 358 363 361 355 355 355 354 352 351 349 349 347 346 346 346 346 350 355 356 358 358 358 357 356 354 349 345 345 345 344 343 341 341 340 336 335 336 335 335 336 338 338 337 338 339 341 340 340 339 341 341 341 342
343 344 345 346 347 347 347 347 347 347 347 348 347 347 347 348 348 347 348 350 352 353 354 352 352 353 352 352 351 354 355 358 357 342 345 351 356 352 353 353 352 350 349 347 346 346 345 345 346 351 357 359 359 356 355 356 358 357 355 354 351 346 342 341 342 338 337 337 336 335 335 335 338 340 339 339 340 339 339 339 339 339 338 337 336
343 344 346 346 347 347 347 347 347 348 348 347 347 347 348 348 347 347 349 351 352 353 351 352 352 351 351 352 351 352 353 357 341 345 347 347 354 354 352 352 353 351 349 348 348 347 346 345 345 346 348 349 348 348 353 355 354 355 355 355 353 351 349 345 342 338 337 335 335 336 337 336 338 339 340 340 340 340 340 339 338 337 336 336 337
343 344 346 347 346 347 348 348 348 347 347 347 348 349 348 347 347 348 349 350 353 351 349 350 351 350 346 345 345 345 346 349 341 343 341 341 345 354 351 351 350 351 352 351 349 348 347 346 345 346 346 354 355 351 347 348 354 355 354 352 347 344 339 340 343 343 340 337 336 336 338 339 338 340 342 341 341 339 339 338 338 338 338 338 339
344 345 347 347 346 347 348 349 349 348 347 348 349 349 348 347 348 348 349 350 349 349 349 347 349 347 345 344 343 343 344 346 339 340 340 340 341 348 348 349 349 349 350 351 351 350 347 346 345 345 345 345 345 346 346 346 345 345 344 344 344 347 347 342 340 341 343 340 339 338 341 342 341 340 342 342 340 338 338 337 338 337 338 339 342
344 346 348 348 347 347 349 349 349 349 348 348 348 348 348 347 347 348 348 347 345 341 342 344 345 345 345 346 346 346 348 343 336 337 336 335 338 350 346 347 348 348 348 349 349 349 347 346 345 344 343 343 344 348 346 345 343 342 342 342 342 343 344 344 343 342 341 342 342 342 342 343 342 342 342 343 342 342 341 339 339 340 341 342 341
346 347 348 348 348 348 349 348 348 349 348 347 348 347 346 346 347 347 347 346 346 346 346 343 342 342 344 344 344 342 346 338 333 335 335 334 340 348 345 345 346 347 347 347 347 346 346 344 343 343 342 343 349 348 349 348 344 344 343 344 343 343 342 345 341 342 346 344 345 344 345 346 343 344 345 345 344 343 344 344 342 339 337 335 334
346 347 347 347 348 348 349 348 349 349 349 348 347 348 347 347 346 348 347 345 345 344 346 344 344 344 344 344 343 342 346 337 328 330 330 330 338 342 343 346 344 344 344 345 345 346 345 344 342 342 344 346 341 330 336 349 345 345 344 342 340 336 336 338 334 334 332 329 328 329 329 328 327 327 326 327 331 338 338 335 333 336 333 331 332
344 345 345 347 348 348 349 349 349 349 348 348 347 347 346 345 345 349 345 343 343 345 344 343 342 343 345 341 341 342 342 341 329 326 324 328 340 343 341 341 342 342 344 345 344 343 345 352 351 348 346 340 332 329 332 343 340 339 337 332 328 327 328 330 330 331 332 330 329 327 327 327 327 327 329 328 327 330 335 332 335 335 332 332 330
343 344 344 345 346 347 348 348 347 346 345 345 346 346 345 344 346 347 344 344 343 344 347 344 344 342 343 343 353 346 342 342 325 324 324 327 338 341 340 338 337 337 341 343 343 342 341 345 350 347 341 337 323 325 329 338 330 329 326 325 324 323 324 322 322 323 324 326 326 329 331 334 335 333 337 343 339 335 335 337 337 334 332 333 333
343 343 344 344 344 345 347 350 347 347 346 344 345 345 345 345 344 343 342 343 344 342 345 345 342 341 342 344 345 345 343 341 336 320 322 327 330 340 338 336 335 334 335 339 339 338 336 331 334 329 326 322 319 319 320 323 327 324 324 321 321 322 321 320 325 323 324 326 325 328 330 331 332 333 334 335 337 338 336 337 337 336 334 331 331
345 346 345 345 346 347 346 347 347 346 346 346 348 350 347 346 346 344 343 340 342 341 341 339 336 336 337 339 340 341 343 340 338 320 321 322 323 334 334 334 331 330 331 336 335 336 333 328 326 327 319 318 315 312 312 316 326 326 322 322 323 325 324 319 323 330 324 327 328 329 331 329 329 331 332 334 335 338 338 338 338 339 336 332 329
347 347 346 346 347 347 346 346 349 349 349 350 347 345 344 346 347 343 340 340 340 339 339 340 337 335 335 337 340 342 347 347 336 326 321 318 319 327 338 336 333 331 330 329 328 330 331 328 325 328 318 316 315 311 309 310 314 321 324 320 317 319 325 325 324 324 324 325 326 326 326 325 324 326 329 328 330 334 334 334 335 336 335 334 331
349 348 347 346 347 347 347 351 351 350 350 349 346 344 343 343 343 344 340 340 340 339 338 338 337 336 338 340 344 346 344 344 338 337 326 318 317 320 322 330 325 333 328 327 326 329 332 333 330 332 318 312 309 309 309 309 316 319 314 313 314 317 324 323 325 324 324 325 327 325 323 323 323 321 323 324 324 324 327 327 328 328 329 331 332
349 349 349 349 349 348 349 350 350 349 350 347 345 342 341 342 342 343 340 340 338 337 337 341 337 337 339 342 345 344 342 340 338 338 333 321 316 315 314 314 318 327 329 326 326 329 329 329 329 320 315 306 305 308 310 315 319 312 310 313 318 324 323 322 322 323 326 325 323 321 321 320 320 322 322 326 324 324 324 325 325 324 324 323 327
349 348 348 348 348 349 349 348 348 348 349 347 344 342 341 340 338 338 342 337 337 337 337 341 337 337 339 342 342 341 340 338 335 335 333 331 322 316 317 317 320 318 328 329 333 331 324 315 314 312 311 309 309 310 312 315 312 311 311 313 324 322 321 321 322 323 322 323 323 323 322 324 324 324 324 323 326 328 328 329 327 326 323 326 325
347 347 347 347 347 348 347 346 347 347 348 346 346 343 343 341 341 339 338 337 337 336 336 338 338 336 338 339 340 340 338 335 334 333 335 337 335 326 320 321 333 336 337 334 331 323 319 317 318 318 321 320 321 320 324 328 327 324 319 320 322 321 322 320 322 323 323 322 322 323 323 320 321 324 324 323 323 325 324 323 324 323 320 322 323
348 346 345 346 345 345 346 342 343 344 345 343 344 343 341 343 342 340 337 337 338 341 339 335 332 334 336 337 340 340 339 336 334 332 330 330 332 333 329 328 330 330 326 321 321 319 322 326 325 321 320 323 326 329 330 332 331 329 326 327 324 323 325 323 323 323 324 323 323 323 323 323 323 325 323 322 323 325 324 325 321 319 322 319 318
346 344 344 344 343 342 342 350 342 334 335 336 337 338 339 337 334 332 331 330 330 331 334 334 333 336 336 336 336 335 331 326 322 318 319 318 320 322 324 322 318 320 319 316 315 317 320 324 324 325 326 327 326 325 326 326 327 327 325 326 326 327 329 332 332 327 325 324 323 321 323 323 321 323 322 322 323 325 324 325 323 320 321 318 313
343 338 338 337 339 343 340 338 334 331 329 327 321 319 322 329 327 324 322 318 324 330 331 330 331 329 332 331 330 328 326 324 321 312 314 308 311 316 317 315 314 316 317 313 315 319 319 321 324 326 326 327 327 327 325 325 325 326 328 326 326 325 326 326 326 327 327 325 324 324 323 321 322 322 322 322 324 324 321 323 323 320 319 315 315
337 337 337 337 339 340 338 335 332 331 330 328 325 322 317 307 309 324 324 321 312 308 319 327 326 324 321 316 317 325 327 321 307 300 297 297 298 299 301 298 299 310 311 308 316 316 318 321 324 325 326 325 325 324 324 324 325 324 325 331 326 325 326 326 327 327 327 325 325 322 323 321 321 319 318 320 321 321 321 325 321 321 317 314 313
339 340 341 340 339 340 339 339 337 333 331 329 328 326 322 319 303 302 311 314 305 299 299 303 310 320 327 320 313 308 307 303 298 297 297 297 296 295 296 295 295 296 300 311 316 317 319 322 324 325 325 324 325 325 325 324 325 325 325 325 327 328 328 325 327 325 325 325 325 325 323 320 319 320 319 320 322 320 319 322 320 321 318 316 313
340 341 342 342 345 344 340 341 341 339 336 332 330 329 325 322 320 304 300 302 303 298 296 297 298 302 310 317 321 314 306 300 297 297 297 297 296 295 295 295 295 295 298 302 317 319 320 321 323 325 325 325 325 326 326 326 325 325 325 325 324 326 325 325 324 324 325 324 324 323 322 320 319 320 320 320 321 319 318 319 319 320 319 315 314
341 340 342 344 344 348 344 342 343 340 340 340 339 336 331 327 323 320 314 301 298 297 297 297 296 297 298 298 302 306 305 302 298 297 296 295 295 295 295 295 297 295 300 314 318 319 320 322 325 326 326 325 325 325 325 326 325 325 324 324 323 323 324 324 322 325 325 324 323 321 321 321 321 321 322 321 319 319 320 319 319 319 318 315 316
340 340 339 340 338 337 337 337 337 336 337 337 337 335 339 336 330 324 322 322 321 310 301 296 297 298 295 296 297 297 296 297 297 296 295 296 296 296 296 301 294 293 301 318 319 322 322 326 326 327 326 327 327 326 326 326 326 325 324 324 323 324 325 324 324 324 324 324 323 323 323 322 322 320 320 320 319 319 318 319 318 318 317 317 316
342 349 350 346 336 335 335 335 335 336 336 336 337 339 340 341 339 334 331 332 331 328 326 322 308 300 307 302 295 295 296 296 297 297 296 296 297 296 299 317 326 324 318 322 326 326 327 327 327 326 326 325 325 324 323 325 326 325 324 324 325 326 325 325 325 325 324 324 323 323 323 322 322 321 321 320 320 320 320 321 320 318 318 317 316
336 335 336 340 338 335 334 333 333 333 334 336 339 339 341 340 339 337 334 335 332 329 327 324 322 312 303 298 295 295 295 296 297 297 297 299 299 306 325 324 325 325 326 327 327 328 327 326 324 323 323 323 322 320 319 320 321 320 319 318 319 318 318 318 318 318 318 318 318 320 319 320 321 321 321 320 320 320 320 320 320 321 320 319 318
333 334 335 335 336 334 334 335 335 335 337 337 336 336 338 339 339 335 333 330 329 328 327 326 325 324 323 326 308 296 297 299 300 301 304 307 309 322 323 323 321 321 321 322 323 321 320 321 321 320 319 318 317 317 316 314 313 312 313 312 310 309 309 309 309 310 310 311 313 314 315 316 316 318 318 318 319 319 319 319 319 321 321 322 323
332 332 332 334 333 333 332 332 334 337 336 334 334 335 337 335 335 332 329 328 327 325 323 325 326 321 320 322 332 324 311 303 306 311 312 311 317 321 322 322 321 319 319 319 319 316 315 315 315 314 313 313 312 311 309 308 308 307 307 306 306 305 308 304 306 304 305 306 307 308 310 311 312 313 315 316 317 318 318 318 317 317 317 320 319
332 333 333 334 334 332 331 332 332 331 331 330 331 334 333 330 330 328 326 326 325 324 324 322 320 320 319 320 323 328 327 324 322 321 321 321 322 321 320 319 319 318 318 318 318 316 313 312 312 311 310 309 308 305 304 304 304 305 304 304 303 301 300 300 300 301 301 302 304 306 306 307 308 310 313 316 317 318 317 317 317 316 315 315 315
331 331 332 333 333 333 334 334 331 330 332 329 328 329 330 330 328 327 325 324 322 321 320 320 319 318 318 317 318 323 324 323 321 321 320 319 319 318 317 316 315 315 316 316 316 314 313 311 311 309 307 306 305 304 303 302 301 301 301 301 299 297 297 297 298 298 298 299 301 302 303 303 306 309 311 315 317 318 317 317 317 317 316 315 315
331 334 336 331 331 331 332 331 327 326 326 326 326 326 325 327 328 330 326 324 322 321 320 319 317 315 313 310 308 314 321 321 321 321 319 318 317 315 314 313 313 313 313 314 314 315 314 312 310 309 307 306 305 303 301 300 299 298 299 299 297 297 295 295 296 296 297 298 298 299 300 301 304 307 309 313 317 317 317 317 317 317 317 317 317
328 327 327 328 330 330 328 328 327 329 327 326 324 324 325 325 324 324 325 326 327 326 323 320 318 316 310 306 305 307 318 319 318 317 317 315 315 313 314 312 311 311 311 311 311 313 313 312 310 308 307 307 305 303 301 299 298 297 297 297 296 296 295 294 295 295 295 296 297 298 299 299 301 303 306 311 311 313 314 315 315 317 317 317 318
329 327 327 328 326 326 327 326 325 323 323 323 324 328 326 322 321 322 322 322 320 319 317 316 316 318 316 310 310 311 318 320 322 318 317 316 313 314 312 311 311 311 311 311 312 310 310 309 307 307 307 307 305 302 300 298 297 296 296 297 297 295 293 294 294 294 294 294 295 297 297 297 298 299 301 304 306 309 312 313 313 313 314 316 317
327 327 327 326 325 324 325 324 327 325 322 325 325 323 322 319 318 318 317 317 317 317 316 315 315 313 313 310 310 311 313 315 317 317 317 317 315 314 312 311 311 311 311 311 311 310 309 309 307 306 307 306 304 302 299 298 296 295 294 293 296 297 293 293 292 292 292 293 294 295 294 296 297 297 299 303 303 306 308 310 311 311 312 314 316
323 323 322 321 321 319 319 321 322 323 326 323 320 319 321 317 316 316 316 315 318 315 315 316 315 313 311 310 309 309 308 310 314 315 313 314 315 314 313 312 311 310 310 311 310 309 309 308 307 306 306 304 302 300 298 298 297 295 294 293 292 292 291 291 291 292 293 293 292 293 294 294 294 295 297 300 304 305 306 308 309 312 309 310 312
323 323 322 319 318 319 318 317 320 316 315 315 315 315 315 313 314 316 316 315 315 314 315 314 313 312 312 309 308 309 308 309 310 311 311 311 312 311 310 308 307 309 312 313 313 312 310 309 307 305 304 302 300 298 298 298 297 296 294 293 292 292 291 291 291 293 292 292 291 291 293 294 295 297 302 303 303 304 305 307 308 308 307 308 309
321 320 320 319 318 318 318 318 316 315 314 314 314 313 311 311 311 314 317 316 313 313 310 310 309 308 308 307 306 306 307 308 308 308 308 308 307 307 307 307 306 305 306 309 311 310 310 308 306 305 304 302 301 299 297 296 295 294 296 293 291 291 290 291 292 291 291 292 292 291 291 293 295 297 299 301 303 304 305 306 307 307 306 307 307
317 318 317 317 316 315 315 313 314 319 314 313 312 312 311 310 310 310 309 309 309 309 308 308 307 308 310 308 308 307 307 307 308 308 307 306 305 305 305 305 306 306 307 306 308 309 309 307 305 304 303 303 302 299 298 296 294 293 292 291 291 290 291 291 290 291 290 290 291 292 292 293 294 297 300 302 302 303 303 303 304 304 305 305 305
312 312 312 312 312 311 310 311 313 310 310 310 310 309 309 308 307 307 308 308 307 307 306 306 306 306 307 308 308 307 308 308 305 305 305 305 305 305 305 305 306 305 305 305 306 307 307 306 305 303 301 301 300 299 298 297 294 293 292 291 292 293 292 292 291 290 290 292 292 292 293 295 297 299 300 300 300 300 301 301 302 303 303 303 303
311 312 311 311 311 310 311 309 308 308 309 308 307 306 307 307 306 306 306 306 305 305 303 304 305 305 305 306 308 307 306 304 303 302 303 304 304 304 304 304 305 304 304 303 304 306 306 305 303 302 300 298 298 297 297 296 294 293 292 292 294 293 291 291 291 290 290 290 291 292 294 297 298 298 297 297 297 298 299 300 301 302 302 301 301
311 310 309 309 308 308 308 306 306 306 307 307 306 305 305 303 303 304 304 303 302 303 303 301 303 304 305 305 308 306 306 304 304 302 302 302 303 305 304 304 305 304 303 303 303 304 304 302 301 300 299 299 298 297 296 295 294 293 295 295 293 290 288 287 288 288 288 289 292 294 296 297 297 296 296 296 297 297 300 300 300 299 300 300 300
Wind_Speed
11 7 7 7 5 6 6 7 8 7 7 6 7 7 5 5 6 5 4 4 4 4 4 5 6 5 7 1 5 3 3 4 3 4 6 7 7 7 6 6 6 6 5 5 4 4 5 5 5 5 3 3 4 3 3 4 4 4 4 0 1 2 3 5 5 8 5 3 4 4 4 3 3 6 7 6 5 6 8 7 7 8 8 8 8
14 11 10 11 14 13 13 5 5 3 7 11 11 10 8 7 7 5 6 6 5 6 6 7 6 8 11 13 11 10 9 7 9 8 7 7 7 7 7 6 6 6 5 5 6 5 5 6 6 6 4 4 3 3 3 3 3 4 2 4 4 5 3 4 6 4 6 3 2 1 1 3 5 3 7 8 7 5 7 7 6 8 8 8 7
10 9 10 9 10 10 8 7 8 8 8 6 8 8 8 8 6 7 7 7 5 6 5 3 4 5 4 7 7 8 8 7 6 6 6 6 7 6 6 7 7 7 6 7 7 6 6 6 7 6 5 4 5 5 3 3 2 1 0 3 3 1 1 1 1 1 4 5 3 2 3 3 6 6 6 6 7 6 7 8 9 8 8 8 7
7 9 10 11 11 10 9 7 6 5 4 4 4 3 3 4 4 6 6 3 5 5 5 5 5 4 4 4 3 3 3 3 3 5 6 7 7 7 6 6 7 8 8 7 7 6 6 6 6 4 3 3 4 3 3 2 1 1 1 1 2 2 3 4 4 3 1 2 3 2 6 3 4 3 3 4 5 6 7 7 5 7 8 7 7
10 10 10 10 9 9 9 7 5 4 6 2 3 3 1 4 5 6 6 5 5 5 4 4 5 4 5 5 4 3 3 2 3 3 3 4 6 6 7 7 7 7 7 7 7 7 7 7 6 4 3 5 4 4 3 3 3 2 3 3 3 1 0 1 2 3 4 6 5 1 1 3 5 4 1 4 4 5 5 7 8 8 6 6 6
11 10 9 9 9 9 6 7 8 8 6 3 4 5 5 5 5 6 7 7 6 5 5 4 5 5 4 5 4 4 3 2 2 3 4 4 4 4 4 5 7 7 6 5 4 4 5 4 4 4 4 5 6 5 4 5 4 4 5 4 2 1 1 1 1 2 2 3 1 5 1 3 7 6 2 3 4 5 6 8 6 6 7 8 9
10 11 10 11 10 8 8 8 8 8 7 6 4 3 5 6 6 6 2 4 5 1 3 4 4 5 5 4 4 4 4 3 3 3 4 4 4 4 4 4 4 4 4 4 4 4 4 4 4 5 5 5 6 6 5 4 4 5 4 3 4 3 3 2 1 0 1 2 2 3 3 6 6 7 5 1 4 5 8 8 8 7 6 8 9
9 9 10 10 9 9 9 8 7 6 5 4 3 4 4 5 4 3 4 4 4 7 5 5 5 4 4 4 4 3 4 4 4 4 4 4 4 5 5 5 5 4 3 3 3 4 4 5 5 5 6 6 6 6 5 5 3 5 4 3 2 3 3 2 2 0 3 1 5 8 5 4 4 3 1 2 3 6 7 6 9 9 7 6 9
6 4 5 6 6 7 7 6 5 5 5 4 4 5 5 5 3 6 4 6 9 7 5 5 4 3 2 3 4 4 5 5 4 4 4 4 5 5 5 5 5 4 4 4 4 4 4 5 6 6 7 9 11 9 8 7 5 5 4 4 3 4 3 2 3 2 3 6 6 4 5 6 7 7 7 5 8 10 4 3 7 8 7 7 7
6 6 6 5 5 6 7 6 7 6 6 5 5 5 5 4 3 6 9 10 10 5 3 2 2 3 3 3 3 3 3 3 3 6 3 2 3 3 3 4 4 5 5 5 4 4 4 5 5 10 11 12 12 12 11 10 9 7 5 5 4 4 4 3 3 3 5 8 7 4 6 8 9 8 8 7 7 6 7 7 8 9 5 8 9
7 7 7 7 7 7 7 6 6 7 7 5 4 4 3 3 3 2 4 6 6 3 2 3 3 3 2 2 2 2 2 1 4 4 2 1 1 2 3 3 3 4 4 4 5 5 5 5 4 6 8 9 7 9 10 12 10 11 10 10 8 6 6 5 5 6 7 7 6 6 7 10 11 8 8 8 6 8 8 7 7 6 6 7 10
8 7 7 7 7 6 6 6 6 6 6 5 4 3 3 3 3 2 2 2 1 1 2 1 1 0 1 2 3 1 1 3 4 2 0 1 2 2 2 3 3 4 4 5 5 5 5 5 5 4 5 6 4 5 8 9 8 9 9 10 10 8 4 4 4 5 7 8 7 8 7 10 10 7 7 6 7 6 7 7 8 7 7 7 7
7 7 7 7 6 6 6 6 6 6 6 6 5 4 4 3 3 3 3 2 1 1 1 1 0 1 4 4 4 4 4 5 2 1 2 1 2 3 2 3 4 4 4 5 5 5 5 5 5 5 5 9 6 3 5 6 8 7 5 6 8 3 8 7 9 11 8 7 6 7 9 9 9 9 6 4 3 6 7 8 7 6 6 8 8
6 7 6 6 6 5 5 5 5 4 4 5 5 5 4 4 3 2 2 1 2 1 3 1 0 2 3 3 2 1 1 2 7 9 4 3 2 1 1 2 2 3 3 4 4 5 5 5 5 5 4 3 3 3 3 3 3 2 3 1 4 8 11 9 14 18 11 7 7 9 8 6 9 5 3 3 4 6 7 9 7 8 8 8 7
6 6 7 6 6 5 5 5 5 4 3 3 3 3 4 3 3 2 1 1 2 3 2 3 3 3 3 2 0 1 2 4 7 10 7 6 5 4 2 3 3 3 3 4 4 4 5 5 4 4 3 2 2 3 3 2 2 2 3 2 2 4 3 4 7 6 7 8 8 9 9 7 7 7 6 6 7 8 8 9 9 8 7 6 5
7 6 7 6 6 6 6 5 4 4 4 3 3 3 3 3 4 3 2 3 5 5 4 2 3 2 3 3 3 3 4 7 7 6 5 5 3 2 2 2 3 3 3 3 3 2 3 4 4 3 3 2 1 3 3 2 3 3 3 3 1 2 3 6 12 12 7 3 5 6 6 7 7 6 5 5 6 6 8 8 5 5 6 7 8
6 6 6 5 5 5 5 5 5 5 5 5 5 5 5 5 4 2 3 2 4 2 3 2 3 4 3 3 3 3 2 0 2 5 6 5 2 2 2 2 2 3 3 3 3 2 2 2 2 3 2 2 4 2 3 3 2 2 2 1 1 1 1 3 4 1 3 5 7 8 11 12 13 12 12 11 9 7 6 6 6 5 7 8 7
5 6 6 5 5 5 5 6 6 5 5 5 4 3 3 1 1 1 3 2 3 3 2 2 3 3 3 3 2 1 0 1 4 6 4 2 3 2 2 2 3 3 4 3 3 2 3 8 5 4 3 2 5 3 2 1 1 1 1 1 3 3 3 1 2 4 7 8 8 8 10 11 11 11 11 12 12 7 6 8 7 4 6 6 7
5 6 5 4 4 4 4 4 3 3 3 3 3 3 3 2 1 1 2 2 2 2 2 2 1 1 1 1 4 3 3 2 1 1 1 2 3 2 2 2 2 2 3 4 4 2 0 3 4 2 3 4 6 3 1 0 1 1 1 1 3 4 5 2 3 4 4 5 4 4 3 4 3 2 3 8 3 5 6 7 5 3 4 3 3
3 3 3 3 3 3 3 4 3 4 4 3 3 3 2 1 2 2 2 3 3 2 2 3 3 2 3 2 2 2 4 2 2 2 2 2 3 1 1 1 0 2 3 3 4 1 0 1 3 4 5 5 3 1 0 2 2 2 1 3 3 6 2 2 3 3 4 3 5 5 5 4 2 2 2 2 3 2 3 3 3 4 4 4 2
3 4 4 4 3 3 3 3 4 4 4 5 5 4 4 4 3 3 3 2 1 1 1 2 2 3 1 2 3 2 2 2 3 2 2 3 4 3 1 1 1 1 2 2 2 0 1 1 2 0 2 3 3 3 3 4 4 2 3 3 3 0 2 1 3 5 3 3 3 4 3 2 2 2 2 2 2 2 1 1 1 1 1 3 4
5 5 5 4 4 3 3 2 3 3 3 4 3 3 3 3 4 3 2 2 2 3 2 2 2 3 1 2 2 2 3 6 3 3 2 4 3 4 0 1 1 1 3 3 2 2 2 3 3 4 5 4 4 5 5 4 5 4 5 5 7 7 3 1 2 3 4 4 4 3 2 1 2 3 2 3 3 2 2 2 2 2 2 2 2
5 4 3 3 2 2 2 3 3 3 3 3 4 3 3 3 3 3 2 2 2 2 2 2 2 2 1 1 2 2 2 2 4 2 3 4 6 4 4 2 4 0 0 2 2 3 3 3 3 5 7 7 6 6 6 6 6 5 6 4 3 3 3 1 2 3 4 4 4 4 3 3 3 3 4 4 5 2 3 3 2 2 2 2 1
4 3 3 4 3 3 3 3 3 3 4 4 3 3 3 3 3 3 3 4 4 3 3 3 2 2 3 1 1 1 1 0 2 3 2 3 5 6 5 4 3 2 2 3 3 4 4 3 2 5 6 8 8 7 7 7 5 7 4 4 2 2 0 1 1 2 3 4 4 4 5 4 3 5 4 5 5 4 4 3 2 2 1 2 4
4 4 4 4 5 4 4 4 4 3 4 4 4 3 3 3 4 3 4 3 4 4 5 4 5 5 4 4 3 2 1 0 1 3 4 5 5 6 7 7 6 3 4 4 3 3 5 6 5 6 8 10 10 8 8 9 11 9 8 6 5 2 2 1 2 2 4 4 5 5 5 5 5 5 4 4 4 4 4 4 1 0 3 5 3
5 6 6 5 5 4 4 4 4 4 5 4 4 4 5 4 4 2 2 2 2 2 3 1 2 3 5 5 4 3 2 1 2 2 3 5 4 5 6 7 8 8 6 4 7 8 9 10 11 8 7 7 5 4 4 5 7 7 7 6 3 3 2 2 2 2 4 5 5 5 6 5 5 5 4 3 4 6 4 2 1 2 1 3 3
6 5 5 5 4 4 5 4 5 4 4 3 3 2 2 2 2 1 0 1 1 1 2 1 1 2 3 4 4 4 3 2 1 1 3 3 3 3 2 3 5 6 5 4 6 6 8 8 7 9 8 10 10 8 8 8 6 4 1 4 4 5 5 5 5 5 5 5 6 6 6 5 4 4 6 4 5 6 3 3 3 3 1 1 2
6 5 6 5 5 6 6 8 6 3 2 2 4 4 3 4 5 3 2 2 5 3 2 2 3 3 5 4 4 4 3 1 2 3 4 4 4 4 3 4 5 4 5 5 5 6 6 7 8 5 4 4 3 2 3 4 4 4 4 5 5 6 6 8 6 5 6 6 6 5 4 4 5 6 5 5 5 7 2 3 4 3 2 2 0
3 3 3 3 2 3 4 5 6 6 6 6 6 6 4 4 3 3 2 1 2 1 5 4 3 4 4 4 4 4 1 1 0 1 2 3 3 4 4 4 4 4 5 9 7 4 4 5 6 7 6 5 5 5 3 1 2 4 4 4 4 5 5 4 6 7 7 6 7 6 6 4 6 5 4 4 5 6 3 5 3 5 2 2 4
5 5 4 5 5 6 6 5 5 6 7 7 7 6 10 11 7 3 3 8 7 4 2 3 4 5 6 2 2 0 0 1 5 4 2 3 3 3 2 1 3 5 7 11 5 3 4 6 6 6 6 6 6 6 6 6 6 5 3 1 3 4 5 5 6 6 5 6 6 5 6 5 5 6 5 5 5 5 3 5 5 4 4 5 5
6 6 6 6 5 6 6 6 5 6 6 6 6 7 5 8 13 14 12 10 10 12 12 8 5 3 4 5 4 7 7 6 4 2 1 3 3 4 4 4 5 5 6 6 4 5 5 6 6 6 6 5 6 6 6 6 6 6 6 4 1 0 1 4 6 4 4 5 5 5 5 6 6 6 5 5 4 5 3 3 3 4 5 6 6
7 6 6 5 6 5 5 5 5 6 5 5 6 6 6 6 5 10 12 11 11 11 11 11 11 11 10 6 5 2 3 3 3 4 5 6 7 7 7 7 7 4 5 2 3 5 5 5 6 6 6 6 6 5 6 6 5 5 5 6 6 6 5 4 5 3 5 5 6 6 6 6 6 6 5 5 3 4 4 4 5 6 6 5 6
8 6 6 5 6 5 5 5 5 5 6 5 5 6 7 7 6 3 4 6 7 8 10 11 11 10 9 8 5 3 4 2 1 1 4 5 7 8 8 7 4 3 4 3 4 5 5 5 5 5 6 6 5 5 5 6 5 5 5 4 4 4 4 4 3 3 2 3 4 5 5 6 6 5 5 4 4 5 4 5 5 6 6 6 6
7 6 6 6 6 5 5 5 6 5 5 4 4 3 3 5 7 7 6 5 4 4 5 6 6 6 6 6 7 7 5 3 0 2 4 6 8 9 6 2 3 3 3 4 5 5 5 5 6 6 6 5 6 6 6 6 5 5 4 4 4 4 4 3 4 4 4 5 5 4 4 5 5 5 6 6 5 5 5 6 5 5 5 7 7
5 9 12 7 5 5 5 5 5 5 5 5 5 6 6 5 6 7 6 6 6 5 3 2 1 2 2 2 3 5 4 3 2 2 4 7 9 10 3 3 6 5 5 5 6 5 6 6 6 6 6 6 6 6 6 6 6 6 7 7 7 7 6 7 7 6 7 6 6 6 6 6 6 5 5 6 6 7 6 6 6 5 6 6 6
7 6 5 6 5 5 5 5 5 6 6 6 6 6 5 5 6 7 7 7 6 5 4 1 1 3 5 5 6 6 5 3 1 2 3 6 8 7 8 6 6 7 6 6 6 6 6 7 7 7 6 7 7 7 6 7 8 7 8 8 9 8 7 7 8 7 7 7 7 8 7 7 7 7 7 6 5 6 6 7 7 7 6 6 6
6 6 5 5 5 6 6 6 6 6 6 6 6 6 6 6 7 7 7 7 6 5 5 4 4 4 2 4 7 5 4 4 4 5 6 7 10 9 7 7 6 6 7 7 7 7 8 8 8 7 7 7 7 7 7 8 8 8 8 8 7 8 8 7 8 8 8 8 8 8 8 8 8 8 8 7 7 6 7 7 8 7 5 7 6
6 6 6 6 6 7 7 7 7 8 7 6 6 6 7 7 7 7 7 6 6 6 6 5 5 5 6 5 5 5 4 5 6 7 8 10 9 7 6 6 6 6 6 6 6 6 6 6 6 6 6 6 7 7 7 7 8 8 8 8 8 7 11 8 10 8 8 7 8 8 8 8 8 8 8 7 7 7 7 7 7 8 8 6 5
8 12 14 12 9 7 6 6 7 7 7 7 6 7 8 7 7 7 6 5 5 5 5 4 5 5 4 3 4 3 6 6 7 7 6 5 5 5 5 5 5 5 5 5 5 5 5 6 6 5 6 6 7 7 7 7 7 7 7 7 8 8 9 8 9 8 8 8 7 7 8 8 8 7 8 7 7 7 7 8 7 7 7 7 7
8 7 8 11 7 8 7 6 6 7 6 7 7 7 7 6 6 6 6 6 6 5 5 5 5 4 3 2 3 3 6 5 5 4 4 4 4 5 5 5 5 5 4 4 4 4 4 5 5 5 6 6 6 6 6 6 6 6 6 7 7 8 8 7 7 8 8 8 7 8 7 8 7 7 7 6 6 7 7 7 8 7 6 6 6
6 7 6 7 7 7 7 7 7 7 6 7 6 7 6 5 5 5 6 6 5 5 6 5 5 4 4 5 4 6 5 4 3 3 4 4 4 4 5 4 3 4 3 3 2 2 3 4 4 4 4 5 5 5 5 5 5 5 5 5 6 6 6 6 6 6 7 7 7 8 8 8 8 8 7 7 8 8 6 7 7 7 6 6 5
7 7 7 6 6 6 6 6 6 7 7 6 6 6 6 6 5 5 5 4 4 4 5 5 5 5 9 12 9 8 5 4 3 3 4 4 4 3 4 3 2 2 1 1 1 1 3 5 4 4 4 4 4 4 4 4 4 4 3 4 5 5 6 6 6 5 6 6 7 7 7 8 8 8 9 9 8 8 8 7 7 7 7 7 7
7 7 6 6 6 5 5 5 6 7 6 6 6 5 6 6 5 5 5 5 5 5 5 5 5 5 6 8 10 9 4 3 3 3 3 3 3 3 3 3 2 1 1 1 0 2 4 5 4 4 4 4 4 4 4 4 3 3 3 4 4 5 5 5 5 6 6 7 7 7 8 7 7 7 7 7 8 9 8 8 7 7 7 8 8
6 6 6 6 6 6 5 4 4 5 6 6 6 5 5 4 5 5 5 4 4 4 5 5 4 5 5 6 7 7 5 4 3 1 1 2 2 2 2 3 2 1 1 0 0 2 6 6 5 5 5 5 4 4 4 4 3 3 4 4 4 4 5 5 6 6 7 7 7 7 8 7 7 7 7 7 7 8 9 8 7 7 7 7 8
6 6 6 7 7 6 6 6 6 5 6 6 5 5 4 4 4 3 3 3 3 3 3 4 5 5 5 6 6 6 6 5 5 5 5 4 3 2 1 0 1 2 2 1 0 3 5 5 5 5 5 5 4 4 4 3 3 2 2 3 4 5 5 5 5 5 5 6 6 7 7 7 8 7 8 8 7 7 8 8 7 7 6 6 7
6 6 6 6 6 6 6 6 6 6 6 6 6 6 6 6 7 7 7 6 6 6 6 5 3 3 3 4 6 6 6 6 6 6 5 5 4 4 3 3 2 2 3 2 2 2 4 5 5 5 5 5 4 4 3 2 2 2 2 2 2 3 4 5 5 5 5 6 6 6 6 6 7 6 9 8 7 7 7 8 7 6 6 6 6
6 6 6 5 5 4 4 4 5 6 6 7 7 7 7 6 7 6 6 7 6 5 5 4 4 4 4 4 6 5 6 6 5 5 3 3 3 4 5 5 6 6 6 4 2 5 5 6 5 5 5 5 4 4 3 2 3 2 2 2 2 3 4 5 4 5 6 6 5 5 5 6 6 6 8 8 7 7 8 7 6 7 6 6 6
7 7 7 7 6 7 7 6 7 7 7 7 6 6 6 6 6 6 5 6 6 6 5 5 6 4 4 4 3 3 4 4 3 3 2 3 3 3 4 4 5 5 5 5 4 4 5 5 5 5 5 5 5 4 2 2 2 2 2 3 3 4 6 6 4 5 5 5 5 5 5 6 6 6 6 7 7 7 7 8 8 7 7 7 6
8 7 7 7 7 7 6 7 7 7 6 5 6 6 5 5 5 5 6 6 6 6 6 6 6 5 5 3 3 3 3 3 4 3 3 3 2 2 1 2 3 3 3 3 3 3 4 5 5 5 5 4 4 4 2 1 1 2 2 3 5 8 9 9 5 6 7 6 5 6 5 5 5 6 6 7 7 7 7 7 7 8 8 7 7
7 7 7 7 7 6 6 7 6 6 5 5 5 5 5 5 5 6 7 6 6 5 5 5 5 6 6 5 4 5 5 5 6 6 5 5 5 5 5 4 4 3 3 2 2 3 4 5 5 5 4 3 3 3 2 1 0 1 2 4 6 8 7 9 10 10 8 5 5 5 6 6 5 6 6 7 7 7 7 7 8 8 7 8 7
7 7 7 7 6 6 7 7 7 6 6 6 6 6 6 6 6 6 6 5 4 4 4 4 5 6 6 6 5 6 6 5 4 3 4 5 5 4 3 4 4 3 3 3 3 4 6 5 5 5 4 3 2 2 2 2 1 1 3 6 7 8 9 9 7 10 12 8 4 5 5 6 6 6 7 7 7 7 8 10 8 8 7 7 7
Wind_Direction
70 109 126 98 71 300 252 213 205 203 200 203 213 217 217 215 211 210 200 205 190 189 201 215 193 159 117 269 315 20 267 199 222 240 227 223 217 216 218 209 213 223 220 230 225 225 230 236 240 241 242 252 257 264 274 276 283 272 250 193 9 263 211 215 220 250 284 236 210 228 238 196 228 218 217 216 213 212 211 211 209 208 211 215 215
173 168 133 152 165 196 217 213 196 175 209 202 208 207 207 208 207 204 203 215 197 193 200 208 202 183 159 180 209 184 229 217 199 211 214 216 222 220 221 214 216 223 218 229 232 231 231 233 240 239 225 226 234 253 252 272 274 291 334 88 280 295 283 219 229 213 256 314 287 300 262 201 234 207 210 213 226 215 213 215 216 217 217 215 213
164 140 150 162 180 196 198 204 212 193 211 225 217 209 209 205 192 190 201 207 196 177 177 186 191 181 168 166 166 170 185 204 211 199 206 211 220 226 220 213 214 220 219 226 229 228 233 233 238 238 238 244 249 256 278 289 314 328 62 131 148 163 74 111 73 333 303 292 262 273 240 226 215 227 220 226 227 209 217 219 217 221 225 215 216
138 149 159 179 183 190 202 211 218 219 228 264 271 233 200 179 172 178 174 168 176 199 176 174 173 170 161 164 168 174 172 184 200 191 189 195 206 220 232 229 223 222 219 221 226 227 229 236 244 245 245 248 255 258 229 183 159 172 199 163 158 186 164 137 149 155 195 221 300 317 329 308 283 263 252 227 226 226 226 239 245 238 233 225 225
162 173 177 176 184 190 197 193 200 208 213 237 270 257 213 200 180 163 165 156 141 142 147 153 164 165 174 182 191 196 198 184 193 211 206 196 201 211 220 223 227 227 221 219 219 216 216 220 227 207 191 217 230 227 208 221 210 203 228 225 231 257 12 208 161 143 175 214 245 226 107 324 297 314 178 189 239 244 252 241 234 239 243 236 235
177 175 173 177 188 191 169 172 187 199 206 217 241 228 206 203 205 186 178 159 142 143 150 162 168 181 189 197 196 204 200 193 206 224 220 199 196 199 204 210 215 214 211 208 208 194 198 198 188 179 184 202 224 226 223 231 225 234 237 226 186 166 172 171 141 186 245 284 319 296 49 230 275 273 263 222 227 244 259 252 251 242 237 242 235
181 179 177 184 189 179 169 177 183 191 196 205 208 221 214 209 205 194 140 56 41 39 171 173 182 176 192 197 212 213 217 218 224 235 243 229 193 187 196 204 206 207 206 204 202 205 207 208 203 198 204 213 222 227 231 238 235 245 236 211 171 188 211 169 179 114 318 322 346 49 272 249 223 248 265 219 245 231 237 250 256 243 231 235 251
185 184 177 182 181 170 178 178 177 183 192 189 193 210 216 216 205 70 55 96 225 223 198 194 191 185 188 193 211 212 214 226 234 236 230 218 196 189 188 203 214 220 218 212 205 203 205 208 205 202 210 217 219 230 216 229 226 242 229 200 195 200 211 180 155 80 16 12 244 244 256 287 297 272 300 321 296 269 238 233 251 257 242 227 236
166 153 158 172 167 155 151 155 155 170 174 176 191 210 220 221 186 127 145 207 230 217 200 186 169 181 192 200 209 212 212 221 220 219 211 207 203 203 202 204 208 215 222 225 222 217 216 217 216 214 216 221 224 222 213 208 200 227 226 189 201 214 228 214 132 103 268 252 251 238 255 257 255 264 269 252 237 244 266 198 252 257 268 272 255
126 124 133 142 142 144 148 152 160 164 168 179 194 209 220 235 207 150 164 193 230 231 195 164 160 188 208 222 228 225 229 240 230 202 181 189 198 208 213 217 219 224 231 239 245 236 233 228 238 239 239 239 239 236 228 214 212 205 213 190 194 194 200 172 121 130 217 249 257 242 244 246 247 240 245 243 243 264 271 256 260 267 275 269 272
119 127 134 146 149 156 157 155 158 166 176 183 182 200 217 229 229 220 174 191 214 216 178 186 184 172 164 160 165 207 215 194 103 89 98 99 161 191 213 232 235 241 240 238 244 239 235 233 240 258 264 264 268 280 280 271 234 220 219 216 203 191 189 185 160 170 218 230 229 234 238 255 255 240 236 246 234 239 249 254 257 270 265 275 281
130 134 141 143 148 150 151 148 151 153 158 171 178 189 203 212 227 227 253 250 233 125 135 145 117 112 80 41 17 9 15 63 105 105 75 250 264 230 230 241 236 233 241 244 246 244 243 241 244 247 252 251 248 246 259 267 266 249 239 231 218 200 194 184 200 213 219 224 221 225 232 243 255 253 254 244 248 252 254 258 258 258 263 262 265
125 126 132 138 141 143 145 149 147 148 155 159 168 172 183 198 205 210 220 214 140 140 185 144 87 65 68 46 34 337 353 343 4 329 328 311 264 262 245 242 246 246 243 250 249 245 239 237 238 236 244 259 258 216 206 233 247 241 209 183 123 166 247 210 215 228 220 224 233 236 231 249 257 248 234 246 225 249 257 258 260 257 253 257 262
124 127 128 135 138 138 139 137 138 144 146 148 155 167 175 197 207 213 208 179 173 158 40 14 93 117 127 129 142 177 149 321 308 296 287 291 262 197 226 262 266 265 259 254 253 242 234 231 237 247 245 256 263 265 264 253 264 276 289 255 185 207 231 220 218 225 227 231 230 239 247 236 251 265 266 248 247 253 258 263 263 262 256 253 261
128 132 130 135 137 140 139 133 133 137 143 154 157 163 180 190 206 218 207 189 98 78 221 229 62 63 83 94 157 195 219 201 228 256 278 287 299 301 301 296 286 286 299 291 267 245 233 226 225 237 249 239 236 243 242 242 222 248 254 262 226 192 169 204 246 244 231 220 229 243 259 263 261 260 253 252 248 245 244 250 253 257 269 278 277
130 131 131 138 141 145 141 137 135 140 148 159 173 184 189 195 200 200 165 144 136 167 192 150 146 154 157 171 186 218 232 213 230 257 272 279 279 276 282 278 280 277 274 286 299 263 219 212 227 238 247 234 249 321 286 207 220 242 252 253 245 121 151 159 210 242 258 258 241 250 261 273 285 278 267 264 261 258 259 265 277 285 286 276 273
126 127 127 130 135 140 142 143 147 156 165 172 185 193 195 206 203 177 149 137 114 150 179 163 169 176 181 185 204 228 267 202 287 278 272 281 323 313 314 302 306 308 295 287 282 266 248 210 206 232 239 207 157 173 284 266 168 243 252 278 337 349 282 135 145 229 287 288 274 275 277 280 282 281 277 266 251 253 268 271 262 258 258 264 266
124 125 132 138 144 147 153 155 159 168 171 183 189 200 202 158 147 149 144 148 155 187 159 146 172 178 182 186 169 188 279 258 233 255 269 333 316 330 345 355 315 304 299 290 272 288 297 292 276 233 217 156 145 169 267 262 165 187 235 290 304 301 286 315 333 298 306 300 283 267 267 270 271 270 265 257 251 235 217 246 254 238 249 250 261
140 140 142 137 141 141 140 142 144 146 164 184 181 195 193 176 148 135 127 124 131 134 134 113 68 28 29 111 235 201 201 238 243 265 281 349 354 7 358 7 350 326 334 322 314 290 343 4 20 107 157 163 160 167 269 356 132 174 201 250 279 281 268 228 265 298 317 332 321 324 308 300 309 315 14 35 6 198 209 237 277 284 272 288 322
128 111 97 90 90 91 96 102 130 159 178 179 183 170 149 127 115 125 108 118 124 127 125 135 178 211 236 209 259 206 177 204 225 233 272 15 6 330 17 100 18 327 338 339 345 25 63 360 20 59 105 131 155 139 165 323 199 218 193 217 263 283 248 208 261 261 288 305 301 305 296 298 314 7 12 18 28 93 184 229 257 289 329 350 327
94 96 92 95 102 115 129 135 147 158 162 167 169 157 156 156 151 156 174 148 129 178 158 174 189 233 212 223 245 205 168 168 216 222 298 349 354 356 106 124 197 278 307 334 352 312 279 307 309 272 173 172 195 224 245 253 270 262 233 233 230 275 59 7 318 335 311 299 301 300 307 317 321 332 360 357 6 14 25 353 244 244 302 326 333
113 118 128 139 146 147 149 163 158 148 152 142 137 150 160 150 161 162 150 160 170 203 205 203 220 265 262 226 233 188 199 187 184 213 259 306 315 311 189 204 192 292 329 327 323 327 270 233 245 227 214 235 239 255 279 298 306 293 260 271 331 335 315 303 289 302 302 301 294 300 300 324 329 323 325 338 324 318 332 298 313 326 316 277 292
134 135 141 142 155 165 174 162 145 140 147 146 144 158 161 154 161 148 153 170 197 224 224 211 222 261 310 158 181 162 138 155 188 214 239 278 296 311 337 339 329 280 109 307 292 286 300 283 258 233 211 237 253 272 276 273 284 257 266 309 315 317 299 290 304 314 312 309 308 285 300 309 303 304 311 309 303 294 270 282 290 299 298 9 99
135 146 159 179 182 184 174 167 159 153 152 150 147 144 149 159 157 167 162 163 170 196 219 216 205 187 192 164 158 130 134 25 220 243 271 264 286 303 319 334 7 360 314 279 298 306 329 328 312 303 245 238 248 251 255 258 251 258 258 258 267 262 259 282 314 307 306 302 294 287 284 276 270 289 272 258 268 279 289 281 269 249 336 67 100
158 172 179 183 186 179 171 166 170 161 167 159 156 161 163 152 150 177 155 143 155 177 200 190 181 178 181 188 179 157 137 353 335 294 286 297 295 304 318 333 336 3 345 325 328 336 327 309 303 267 249 251 251 245 248 244 237 235 238 226 228 173 205 249 294 330 314 286 273 276 281 269 244 245 255 270 284 304 299 300 323 8 91 104 103
167 178 178 179 178 164 162 181 185 180 172 175 172 178 168 175 168 191 148 185 183 193 241 246 251 199 187 179 168 150 160 180 263 296 300 306 304 299 302 315 318 322 319 335 345 333 314 305 299 299 282 253 247 236 251 260 244 222 198 191 181 188 204 233 272 267 262 267 260 253 251 258 264 258 272 282 295 276 273 284 314 313 9 133 147
176 175 180 177 174 170 175 190 200 193 186 166 158 153 137 125 103 79 74 118 105 149 106 110 108 78 127 142 142 155 166 183 216 353 9 338 326 317 314 327 345 2 12 1 344 328 316 315 307 292 274 273 268 262 266 276 288 286 214 180 173 188 203 210 217 227 247 252 257 252 254 263 285 302 283 284 281 276 244 240 206 244 236 276 193
178 183 183 181 185 190 193 193 156 97 61 82 107 102 82 93 96 70 69 93 123 106 91 86 92 115 117 116 115 124 136 80 21 6 354 343 335 346 11 9 12 2 347 341 322 311 312 311 313 308 294 291 279 255 239 238 245 250 217 197 201 201 210 219 224 229 241 239 250 263 277 278 281 270 279 276 264 272 245 212 200 216 208 143 38
161 167 179 159 160 131 131 116 121 120 100 80 55 39 22 25 75 93 22 298 318 87 118 81 64 54 79 94 120 120 107 106 104 69 28 24 9 353 7 11 355 341 331 324 315 308 315 329 340 343 359 359 360 1 359 322 255 230 216 198 200 200 209 204 219 228 232 240 250 256 266 284 284 277 270 282 272 271 251 217 206 177 198 163 218
97 98 100 106 107 108 105 106 118 119 119 116 107 82 61 54 23 40 68 19 16 349 112 126 141 122 102 52 14 104 169 109 97 80 49 45 35 44 43 338 306 324 327 307 290 315 335 339 346 346 346 357 8 13 13 22 17 12 7 179 177 189 203 209 221 229 231 237 251 263 266 268 276 281 279 263 276 278 240 200 207 192 185 207 227
93 87 84 81 95 102 105 108 113 115 121 122 117 112 95 41 37 35 34 32 23 24 40 52 42 48 123 123 77 63 77 97 98 89 48 12 359 351 342 339 338 335 341 351 23 12 352 353 347 350 349 356 17 8 11 23 22 16 5 9 21 312 207 209 234 236 242 253 265 261 262 258 261 270 272 274 283 295 299 241 234 200 210 214 222
104 103 100 100 90 94 97 105 112 122 128 133 132 132 118 101 46 27 33 27 20 25 33 38 39 45 51 79 116 64 39 24 48 13 0 346 334 331 332 335 334 339 338 320 16 11 353 352 355 4 360 15 11 14 18 25 22 27 19 23 12 10 1 335 331 323 281 272 264 264 266 267 264 267 271 275 281 284 272 247 227 228 231 222 227
115 111 107 102 101 104 105 102 104 110 126 135 150 152 141 135 127 113 28 31 45 48 42 40 43 44 54 54 54 123 149 149 135 345 334 320 314 313 319 318 320 309 312 10 28 9 360 1 18 15 20 21 16 22 20 18 13 19 30 28 19 358 10 346 335 11 341 287 275 280 284 280 277 278 276 277 276 277 267 253 243 232 231 232 244
112 117 115 113 107 105 107 114 109 105 108 118 129 130 134 139 140 136 125 122 87 74 81 69 70 70 54 69 91 96 110 123 80 343 312 307 310 313 330 356 25 16 57 30 7 22 13 24 28 27 21 25 23 17 19 15 9 9 7 14 356 342 351 339 9 357 354 348 348 332 317 307 305 308 305 301 286 271 274 273 265 253 242 231 238
84 95 98 100 102 100 97 90 92 92 88 88 88 90 90 97 119 130 130 113 102 91 75 59 2 275 148 104 105 117 114 94 87 307 320 322 328 317 291 50 33 26 28 20 25 28 32 32 32 27 28 31 25 20 15 11 16 17 13 359 2 4 359 7 12 9 8 358 357 354 347 341 341 336 326 318 319 321 308 296 282 255 252 250 239
78 68 58 69 73 79 77 78 80 83 91 92 96 94 94 93 92 95 96 97 101 102 89 55 139 206 146 113 138 131 123 105 137 356 338 351 344 4 53 35 39 28 29 21 20 22 35 35 31 29 26 30 23 21 16 20 19 15 17 12 13 14 12 12 9 7 1 2 360 355 350 353 348 342 337 334 332 323 315 309 297 283 257 249 240
85 79 72 71 76 73 69 67 66 73 78 80 81 82 79 85 88 87 85 90 93 81 72 47 44 48 74 84 119 103 112 117 98 77 53 46 44 51 52 51 42 34 31 23 20 21 23 20 19 21 21 24 23 19 23 26 21 20 17 18 13 13 15 10 13 7 6 2 359 355 352 351 348 347 344 335 332 335 335 334 329 310 277 252 244
65 72 77 81 77 74 71 68 67 68 70 70 72 78 84 87 89 92 94 95 87 84 74 57 60 52 51 24 64 106 133 146 119 75 53 48 46 54 55 57 54 46 40 34 35 27 28 23 23 21 17 23 29 26 28 27 24 22 19 16 15 14 13 14 14 13 10 4 359 353 350 347 345 343 338 335 333 337 339 339 340 341 339 318 295
71 74 79 78 76 78 77 75 69 71 70 68 70 83 90 92 93 93 91 87 85 82 83 79 67 63 44 32 42 68 90 62 59 60 57 52 51 55 61 57 53 53 47 46 42 42 36 34 25 29 32 34 38 34 32 30 24 23 19 17 15 11 12 9 7 3 1 357 353 348 348 345 339 336 331 327 338 343 337 335 335 339 337 336 328
70 66 68 75 76 72 74 73 72 71 74 78 73 75 81 88 98 103 101 94 89 84 80 71 62 40 11 22 25 49 74 77 80 90 88 75 68 60 64 62 50 46 44 39 48 48 53 44 35 40 43 44 43 43 38 32 27 24 23 26 19 15 10 5 360 359 355 348 346 344 342 340 334 328 327 331 337 337 333 332 329 324 321 319 314
73 72 70 65 74 77 75 74 73 77 76 76 78 75 76 83 90 95 98 96 97 91 80 75 75 69 65 71 42 68 96 96 94 86 85 94 81 74 63 63 65 60 52 52 54 67 72 72 60 63 60 55 51 50 44 39 33 28 27 25 22 17 5 4 360 356 348 344 341 337 338 338 335 334 335 331 336 332 324 322 317 318 319 315 309
77 72 66 61 61 73 78 74 74 76 76 79 77 82 80 78 79 86 95 105 103 92 83 74 66 67 53 51 65 82 97 107 102 97 87 89 100 104 99 90 103 117 114 133 138 101 86 77 67 59 63 63 64 59 52 47 37 31 17 16 22 13 9 359 353 343 341 335 332 331 334 331 330 328 325 325 328 325 324 329 328 327 326 323 316
81 76 73 68 65 63 77 91 97 94 91 89 88 85 86 84 81 80 85 87 91 90 90 80 67 61 54 40 41 44 51 73 121 133 131 128 124 124 120 128 142 187 206 206 149 127 100 96 94 87 77 76 70 65 56 46 35 23 17 4 13 18 2 347 345 344 338 335 332 329 328 326 326 324 320 322 324 324 320 322 326 333 331 329 331
79 75 69 64 61 57 49 49 72 98 112 113 108 101 94 89 86 88 97 101 103 101 103 100 90 70 55 39 42 36 31 16 17 33 115 123 132 146 154 160 179 196 242 261 261 105 106 123 126 109 93 86 84 76 72 57 46 46 25 14 2 11 2 349 344 337 333 327 326 328 327 324 325 322 318 318 320 322 321 318 319 325 333 334 334
81 76 71 60 53 52 50 50 57 64 70 68 60 62 65 65 63 60 59 67 74 84 85 83 77 73 61 53 48 42 34 27 32 36 34 49 52 33 4 305 250 227 246 271 279 104 125 129 118 100 98 94 87 94 83 71 61 49 37 22 19 4 349 335 317 308 305 313 316 318 322 324 323 322 316 313 317 317 313 311 306 313 325 329 333
85 79 77 73 68 60 61 61 68 70 72 79 82 72 58 52 52 56 57 57 58 65 66 74 80 82 86 76 65 57 50 53 53 48 45 36 34 18 9 13 359 328 302 283 276 69 109 116 116 119 115 111 105 87 78 68 53 54 43 27 1 326 308 299 294 304 315 317 314 311 311 314 312 308 313 314 310 309 305 304 302 302 310 315 317
81 83 83 82 80 73 63 66 72 74 74 74 75 75 70 70 69 63 62 61 58 57 68 66 64 60 62 70 76 74 77 74 70 61 50 41 29 19 12 8 12 5 358 357 54 107 125 115 123 122 120 114 110 104 82 55 39 15 7 357 341 331 323 319 309 313 316 313 307 302 304 303 305 303 315 318 317 321 324 322 318 314 316 318 316
62 57 52 50 48 48 44 45 51 60 71 81 86 84 83 78 73 71 66 58 54 52 51 48 45 47 65 68 74 79 83 89 85 77 59 46 37 39 33 33 35 28 13 11 21 87 115 123 118 116 116 120 118 116 110 73 28 8 349 333 336 325 328 325 315 325 327 316 311 301 298 300 302 307 312 322 328 332 335 333 331 327 326 325 325
67 65 61 59 59 54 51 55 62 66 67 70 73 77 79 77 73 70 61 55 52 50 56 57 48 39 36 42 62 71 72 66 55 35 15 355 8 56 75 53 47 42 48 35 37 86 109 111 112 109 116 118 124 130 142 125 33 3 346 334 326 335 334 336 331 336 336 334 328 321 317 311 315 325 335 340 337 336 331 330 333 330 326 325 327
68 66 64 60 57 52 53 63 64 64 60 59 71 75 70 68 63 60 63 62 58 53 48 49 53 51 51 37 35 41 48 43 40 32 19 14 1 344 2 17 24 19 23 40 62 106 108 106 107 111 110 124 132 142 149 159 232 339 325 325 331 340 338 337 334 341 345 335 328 321 320 320 331 340 342 337 333 334 334 335 331 328 325 325 325
66 66 62 61 60 57 61 62 60 56 56 63 68 69 67 64 64 68 75 72 70 66 60 54 50 54 52 52 51 46 46 47 42 32 31 29 28 23 14 30 16 359 352 6 48 117 117 115 118 122 127 128 138 153 176 198 224 302 327 334 343 345 343 344 336 331 333 334 324 328 334 334 339 342 343 336 332 330 336 335 331 328 327 324 321